Weather Roundup
Issued by NWS Corpus Christi, TX

Home | Current Version | Previous Version | Text Only | Print | Product List | Glossary On
Versions: 1 2 3 4 5 6 7 8 9 10 11 12 13 14 15 16 17 18 19 20 21 22 23 24 25 26 27 28 29 30 31 32 33 34 35 36 37 38 39 40 41 42 43 44 45 46 47 48 49 50
000
ASUS44 KCRP 250910
HRRCRP

SOUTH TEXAS REGIONAL WEATHER ROUNDUP
NATIONAL WEATHER SERVICE CORPUS CHRISTI TX
300 AM CST SAT NOV 25 2017


TXZ229>244-251000-
...CORPUS CHRISTI AREA OBSERVATIONS...

CITY           SKY/WX    TMP DP  RH WIND       PRES   REMARKS
CORPUS CHRISTI CLEAR     57  54  89 S9        29.88S
NAS CORPUS CHR CLEAR     66  63  90 S8        29.87F
ROCKPORT       CLEAR     61  60  97 S3        29.88S
KINGSVILLE ARP MOCLDY    50  50 100 CALM      29.88S FOG
KINGSVILLE NAS CLEAR     53  53 100 S3        29.87S FOG
ALICE          FOG       46  46 100 S3        29.87S VSB 1/4
$$

...VICTORIA AREA OBSERVATIONS...

CITY           SKY/WX    TMP DP  RH WIND       PRES   REMARKS
PORT LAVACA    CLEAR     57  55  93 CALM      29.90R
VICTORIA       CLEAR     47  47 100 SW3       29.90S FOG
BEEVILLE       FAIR     N/A N/A N/A CALM      29.88S
PLEASANTON     CLOUDY    46  44  91 CALM      29.89R
SAN ANTONIO    PTCLDY    50  42  74 NW5       29.89S
$$

...LAREDO AREA OBSERVATIONS...

CITY           SKY/WX    TMP DP  RH WIND       PRES   REMARKS
LAREDO         CLEAR     58  52  80 SE8       29.84F
COTULLA        CLEAR     52  44  74 E5        29.86R
DEL RIO        CLEAR     53  41  63 NE8       29.84S
MCALLEN        CLEAR     60  55  83 SE7       29.87F
HEBBRONVILLE   CLEAR     48  46  90 SW6       29.87S
$$

...OTHER TEXAS OBSERVATIONS...

CITY           SKY/WX    TMP DP  RH WIND       PRES   REMARKS
BROWNSVILLE    CLEAR     58  56  93 S7        29.89F
HOUSTON        PTCLDY    48  46  93 CALM      29.93R
COL. STATION   CLEAR     50  47  89 SE6       29.91R
AUSTIN         CLEAR     42  40  92 CALM      29.88S
WACO           CLEAR     54  43  66 S15       29.86R
FORT WORTH     PTCLDY    52  40  63 SE6       29.82S
WICHITA FALLS  CLEAR     44  36  73 NE6       29.84R
LUBBOCK        CLEAR     52  32  46 N18       29.92R
EL PASO        PTCLDY    52  26  36 NW5       30.04R
$$

...MARINE OBSERVATIONS...

STATION/POSITION TIME  SKY/WX   TEMP    WIND        PRES    VSBY  WAVE   SWELL
                                AIR SEA DIR/SP/G                  HT/PER HT/PER
                 (UTC)          (F)     (DEG/KT/KT) (MB)    (MI)  (FT/S) (FT/S)
PORT ARANSAS     NOT AVBL
BUOY 90 E PORT A 0850            73 77  180/ 16/ 17 1012.5R         3/ 4
BUOY 200 E PT IS 0850            72 79  190/  8/ 12 1014.1F         2/ 7   2/ 7
BUOY 15 E GALVES 0750            69 69  210/ 12/ 14 1013.3          2/ 3
$$




USA.gov is the U.S. government's official web portal to all federal, state and local government web resources and services.